Location: Br�znic
(45.9167°N, 22.6500°E)
Time: 18:58:22
(UTC+00:00)

USA 234 - Pass Details

Date: 03 March 2021
Orbit: 1102 x 1105 km, 123.0° (Epoch: 13 April)

Event Time Altitude Azimuth Distance (km) Brightness Sun altitude
Exits shadow 17:52:36 16° 59° (ENE) 2,563 4.7 -17.1°
Maximum altitude 17:57:58 61° 136° (SE) 1,242 3.3 -18.0°
Drops below altitude 10° 18:04:25 10° 216° (SW) 2,954 5.8 -19.1°
Sets 18:06:56 0° 220° (SW) 3,910 6.6 -19.5°
